Tracking 22879 objects as of 20-Apr-2021
HD Live streaming from Space Station
objects crossing your sky now

ONEWEB-0041

Track ONEWEB-0041 now!
10-day predictions
ONEWEB-0041 is classified as:


NORAD ID: 45148
Int'l Code: 2020-008T
Perigee: 1,073.6 km
Apogee: 1,097.5 km
Inclination: 87.9 °
Period: 106.8 minutes
Semi major axis: 7456 km
RCS: Unknown
Launch date: February 6, 2020
Source: United Kingdom (UK)
Launch site: TYURATAM MISSILE AND SPACE COMPLEX (TTMTR)
aabbcc
Your satellite tracking list
Your tracking list is empty




NASA's NSSDC Master Catalog

Two Line Element Set (TLE):
1 45148U 20008T   21109.87415874  .00000036  00000-0  34926-4 0  9996
2 45148  87.9395  35.2537 0016042 225.8217 134.1614 13.48321547 64132
Source of the keplerian elements: AFSPC